sat.trackr.live / text

‹ back to catalog

STARLINK-5930

NORAD 55928 · 2023-037Q

PAYLOAD ACTIVE UNKNOWN

§ Identity

Operator
Country
US
Launch date
2023-03-17
Launch site
AFWTR
Launch vehicle
Mass (kg)
RCS (m²)

Purposes: comms

External: N2YO · Heavens-Above · Gunter

§ Orbital elements

Epoch: 2026-09-20T18:43:51.332736Z

Period
96.11 min
Inclination
70.0003°
Eccentricity
0.0002756
Mean motion
14.98322431 rev/d
Perigee alt
570.2 km
Apogee alt
574.0 km
Semi-major
6,950.2 km
B*
4.4885e-5
RAAN
172.4123°
Arg perigee
264.7901°
Mean anomaly
95.2943°
Rev number
19,271

§ Raw data

STARLINK-59301 55928U 23037Q   26263.78045524  .00000443  00000+0  44885-4 0  99912 55928  70.0003 172.4123 0002756 264.7901  95.2943 14.98322431192719

JSON: /api/v1/satellites/55928 · /tle

For live sub-satellite position, see the globe view (requires WebGL).

§ Visibility from observer

Set your observer location to see the next 7 days of passes ≥ 10°. The values pass through the URL so the page stays shareable.

No JS? Fill the form by hand. The geolocation button needs JavaScript.